Météo par heure à Kyslyts'ke

Ce jour, 5 Août, Jeudi

Heure Température Précipitation Vent Pression Humidité
00:00 +18°C° 0.3 mm 2 m/s 738 mmHg 89%
01:00 +18°C° 0.3 mm 2 m/s 737 mmHg 89%
02:00 +19°C° 0.3 mm 1 m/s 737 mmHg 90%
03:00 +19°C° 0 mm 1 m/s 737 mmHg 90%
04:00 +18°C° 0 mm 2 m/s 737 mmHg 89%
05:00 +18°C° 0 mm 2 m/s 736 mmHg 89%
06:00 +19°C° 0 mm 2 m/s 736 mmHg 86%
07:00 +20°C° 0 mm 2 m/s 736 mmHg 83%
08:00 +21°C° 0 mm 3 m/s 736 mmHg 81%
09:00 +23°C° 0 mm 4 m/s 736 mmHg 74%
10:00 +26°C° 0 mm 4 m/s 736 mmHg 66%
11:00 +28°C° 0 mm 5 m/s 736 mmHg 59%
12:00 +29°C° 0 mm 5 m/s 736 mmHg 56%
13:00 +30°C° 0 mm 6 m/s 735 mmHg 53%
14:00 +30°C° 0 mm 6 m/s 735 mmHg 49%
15:00 +32°C° 0 mm 5 m/s 734 mmHg 50%
16:00 +32°C° 0 mm 4 m/s 734 mmHg 50%
17:00 +32°C° 0 mm 4 m/s 733 mmHg 50%
18:00 +29°C° 0 mm 4 m/s 733 mmHg 55%
19:00 +27°C° 0 mm 4 m/s 732 mmHg 60%
20:00 +25°C° 0 mm 4 m/s 732 mmHg 65%
21:00 +23°C° 0.7 mm 4 m/s 732 mmHg 71%
22:00 +22°C° 0.7 mm 4 m/s 732 mmHg 78%
23:00 +21°C° 0.7 mm 3 m/s 732 mmHg 84%

Demain, 6 Août, Vendredi

Heure Température Précipitation Vent Pression Humidité
00:00 +21°C° 0.2 mm 4 m/s 731 mmHg 85%
01:00 +21°C° 0.2 mm 4 m/s 731 mmHg 86%
02:00 +21°C° 0.2 mm 4 m/s 730 mmHg 88%
03:00 +21°C° 0.2 mm 4 m/s 730 mmHg 89%
04:00 +21°C° 0.2 mm 4 m/s 730 mmHg 90%
05:00 +21°C° 0.2 mm 3 m/s 729 mmHg 91%
06:00 +22°C° 0.1 mm 3 m/s 729 mmHg 87%
07:00 +23°C° 0.1 mm 4 m/s 730 mmHg 83%
08:00 +25°C° 0.1 mm 4 m/s 730 mmHg 79%
09:00 +25°C° 1.2 mm 4 m/s 730 mmHg 79%
10:00 +25°C° 1.2 mm 3 m/s 730 mmHg 79%
11:00 +25°C° 1.2 mm 3 m/s 730 mmHg 79%
12:00 +26°C° 0.4 mm 2 m/s 730 mmHg 74%
13:00 +27°C° 0.4 mm 2 m/s 730 mmHg 69%
14:00 +27°C° 0.4 mm 1 m/s 730 mmHg 65%
15:00 +27°C° 0.7 mm 1 m/s 730 mmHg 68%
16:00 +26°C° 0.7 mm 1 m/s 729 mmHg 71%
17:00 +26°C° 0.7 mm 1 m/s 729 mmHg 74%
18:00 +24°C° 0.8 mm 2 m/s 730 mmHg 78%
19:00 +21°C° 0.8 mm 2 m/s 730 mmHg 83%
20:00 +19°C° 0.8 mm 3 m/s 731 mmHg 88%
21:00 +19°C° 0.3 mm 3 m/s 731 mmHg 89%
22:00 +19°C° 0.3 mm 3 m/s 731 mmHg 90%
23:00 +19°C° 0.3 mm 3 m/s 731 mmHg 91%

Après-demain, 7 Août, Samedi

Heure Température Précipitation Vent Pression Humidité
00:00 +18°C° 0 mm 3 m/s 732 mmHg 92%
01:00 +18°C° 0 mm 4 m/s 732 mmHg 92%
02:00 +17°C° 0 mm 4 m/s 733 mmHg 93%
03:00 +15°C° 0 mm 4 m/s 733 mmHg 93%
04:00 +15°C° 0 mm 4 m/s 733 mmHg 94%
05:00 +14°C° 0 mm 3 m/s 734 mmHg 95%
06:00 +15°C° 0 mm 4 m/s 734 mmHg 88%
07:00 +17°C° 0 mm 4 m/s 735 mmHg 81%
08:00 +17°C° 0 mm 5 m/s 735 mmHg 74%
09:00 +19°C° 0 mm 4 m/s 735 mmHg 66%
10:00 +21°C° 0 mm 4 m/s 736 mmHg 58%
11:00 +22°C° 0 mm 4 m/s 736 mmHg 50%
12:00 +23°C° 0 mm 4 m/s 736 mmHg 48%
13:00 +25°C° 0 mm 4 m/s 736 mmHg 47%
14:00 +26°C° 0 mm 4 m/s 736 mmHg 45%
15:00 +26°C° 0 mm 4 m/s 736 mmHg 46%
16:00 +26°C° 0 mm 3 m/s 736 mmHg 48%
17:00 +26°C° 0 mm 3 m/s 736 mmHg 50%
18:00 +24°C° 0 mm 2 m/s 737 mmHg 55%
19:00 +21°C° 0 mm 2 m/s 737 mmHg 61%
20:00 +21°C° 0 mm 1 m/s 737 mmHg 67%
21:00 +20°C° 0 mm 1 m/s 737 mmHg 69%
22:00 +20°C° 0 mm 1 m/s 737 mmHg 70%
23:00 +19°C° 0 mm 1 m/s 738 mmHg 72%

8 Août, Dimanche

Heure Température Précipitation Vent Pression Humidité
00:00 +19°C° 0 mm 1 m/s 738 mmHg 72%
01:00 +16°C° 0 mm 0 m/s 738 mmHg 73%
02:00 +16°C° 0 mm 0 m/s 738 mmHg 74%
03:00 +18°C° 0 mm 1 m/s 738 mmHg 74%
04:00 +18°C° 0 mm 1 m/s 738 mmHg 75%
05:00 +16°C° 0 mm 1 m/s 738 mmHg 76%
06:00 +19°C° 0 mm 1 m/s 738 mmHg 70%
07:00 +21°C° 0 mm 1 m/s 739 mmHg 65%
08:00 +23°C° 0 mm 1 m/s 739 mmHg 60%
09:00 +24°C° 0 mm 2 m/s 739 mmHg 56%
10:00 +25°C° 0 mm 2 m/s 739 mmHg 51%
11:00 +27°C° 0 mm 2 m/s 739 mmHg 47%
12:00 +27°C° 0 mm 2 m/s 739 mmHg 45%
13:00 +28°C° 0 mm 2 m/s 739 mmHg 43%
14:00 +29°C° 0 mm 2 m/s 739 mmHg 41%
15:00 +29°C° 0 mm 1 m/s 739 mmHg 42%
16:00 +29°C° 0 mm 1 m/s 739 mmHg 42%
17:00 +29°C° 0 mm 1 m/s 739 mmHg 43%
18:00 +27°C° 0 mm 1 m/s 739 mmHg 48%
19:00 +25°C° 0 mm 1 m/s 739 mmHg 54%
20:00 +23°C° 0 mm 2 m/s 739 mmHg 59%
21:00 +21°C° 0 mm 2 m/s 739 mmHg 60%
22:00 +20°C° 0 mm 2 m/s 739 mmHg 60%
23:00 +20°C° 0 mm 2 m/s 739 mmHg 61%

9 Août, Lundi

Heure Température Précipitation Vent Pression Humidité
00:00 +19°C° 0 mm 2 m/s 739 mmHg 61%
01:00 +19°C° 0 mm 2 m/s 739 mmHg 61%
02:00 +19°C° 0 mm 2 m/s 739 mmHg 61%
03:00 +18°C° 0 mm 2 m/s 739 mmHg 63%
04:00 +18°C° 0 mm 2 m/s 739 mmHg 64%
05:00 +18°C° 0 mm 2 m/s 739 mmHg 65%
06:00 +21°C° 0 mm 1 m/s 739 mmHg 62%
07:00 +22°C° 0 mm 1 m/s 739 mmHg 58%
08:00 +22°C° 0 mm 0 m/s 739 mmHg 54%
09:00 +26°C° 0 mm 1 m/s 739 mmHg 50%
10:00 +27°C° 0 mm 1 m/s 740 mmHg 47%
11:00 +29°C° 0 mm 2 m/s 740 mmHg 43%
12:00 +29°C° 0 mm 2 m/s 739 mmHg 40%
13:00 +30°C° 0 mm 1 m/s 739 mmHg 37%
14:00 +31°C° 0 mm 1 m/s 739 mmHg 34%
15:00 +31°C° 0 mm 1 m/s 739 mmHg 35%
16:00 +31°C° 0 mm 1 m/s 739 mmHg 36%
17:00 +31°C° 0 mm 1 m/s 739 mmHg 36%
18:00 +29°C° 0 mm 1 m/s 739 mmHg 42%
19:00 +27°C° 0 mm 1 m/s 739 mmHg 47%
20:00 +25°C° 0 mm 1 m/s 739 mmHg 52%
21:00 +24°C° 0 mm 2 m/s 739 mmHg 58%
22:00 +23°C° 0 mm 2 m/s 739 mmHg 64%
23:00 +21°C° 0 mm 3 m/s 739 mmHg 69%

10 Août, Mardi

Heure Température Précipitation Vent Pression Humidité
00:00 +21°C° 0.1 mm 3 m/s 739 mmHg 76%
01:00 +20°C° 0.1 mm 3 m/s 739 mmHg 83%
02:00 +19°C° 0.1 mm 3 m/s 739 mmHg 90%
03:00 +19°C° 0.1 mm 3 m/s 739 mmHg 92%
04:00 +19°C° 0.1 mm 3 m/s 739 mmHg 94%
05:00 +18°C° 0.1 mm 3 m/s 739 mmHg 96%
06:00 +19°C° 0.1 mm 3 m/s 739 mmHg 92%
07:00 +21°C° 0.1 mm 3 m/s 739 mmHg 87%
08:00 +22°C° 0.1 mm 3 m/s 739 mmHg 83%
09:00 +21°C° 0.3 mm 4 m/s 739 mmHg 84%
10:00 +21°C° 0.3 mm 4 m/s 739 mmHg 84%
11:00 +21°C° 0.3 mm 5 m/s 739 mmHg 85%
12:00 +21°C° 0.4 mm 4 m/s 739 mmHg 84%
13:00 +21°C° 0.4 mm 4 m/s 739 mmHg 83%
14:00 +21°C° 0.4 mm 4 m/s 739 mmHg 82%
15:00 +22°C° 0 mm 4 m/s 739 mmHg 79%
16:00 +22°C° 0 mm 4 m/s 739 mmHg 75%
17:00 +23°C° 0 mm 5 m/s 738 mmHg 72%
18:00 +21°C° 0 mm 4 m/s 738 mmHg 78%
19:00 +20°C° 0 mm 3 m/s 738 mmHg 84%
20:00 +19°C° 0 mm 3 m/s 738 mmHg 89%
21:00 +19°C° 0 mm 3 m/s 738 mmHg 90%
22:00 +18°C° 0 mm 3 m/s 738 mmHg 90%
23:00 +18°C° 0 mm 3 m/s 738 mmHg 90%
Voir plus

Nous avons besoin de votre consentement

Meteoprog et ses fournisseurs de services peuvent stocker et accéder à des données personnelles telles que des cookies, des identifiants d'appareils ou d'autres technologies similaires sur votre appareil et traiter ces données pour personnaliser le contenu et les publicités, ainsi que pour fournir des fonctionnalités de médias sociaux et analyser le trafic.

  • Stocker et/ou accéder à des informations sur votre appareil

    Des cookies, des identifiants d'appareils ou d'autres informations peuvent être stockés ou accessibles sur votre appareil aux fins indiquées ci-dessus.

  • Annonces et contenus personnalisés, mesure des annonces et des contenus, connaissance de l'audience et développement de produits

    Les annonces et le contenu peuvent être personnalisés en fonction d'un profil. D'autres données peuvent être ajoutées pour mieux personnaliser les annonces et le contenu. Les performances des publicités et du contenu peuvent être mesurées. Il est possible d'obtenir des informations sur le public qui a vu les publicités et le contenu. Ces données peuvent être utilisées pour développer ou améliorer l'expérience de l'utilisateur, les systèmes et les logiciels.

En cliquant sur "J'accepte", vous autorisez l'utilisation de cookies, des identifiants d'appareils, des balises web ou d'autres technologies similaires. Vos paramètres peuvent être modifiés dans le navigateur de votre appareil.

Dans certains cas, des intérêts légitimes peuvent être invoqués plutôt qu'un consentement. Vous pouvez en savoir plus à ce sujet dans notre Politique de confidentialité et de cookies.